www.pogodaiklimat.ru

Погода и климат >> Архив погоды >> Россия >> Оренбургская область >> Соль-Илецк


ПОГОДА в Соль-Илецк

  • Прогноз погоды в Соль-Илецк
  • Монитор погоды в Соль-Илецк

АРХИВ ПОГОДЫ в Соль-Илецк

Время (UTC), дата Ветер
(напр.,м/с)
 
Видим.   Явления Облачность Т
(С)
Тd
(С)
f
(%)
Тe
(С)
Тes
(С)
Комфортность P
(гПа)
Po
(гПа)
Тmin
(С)
Tmax
(С)
R
(мм)
R24
(мм)
S
(см)
21 8.09 С 2 10 км ясно +12.6 +7.9 73 +12 +12 1025.2 1010.6
00 9.09 С 2 10 км ясно +10.8 +7.4 80 +10 +10 1025.5 1010.7
03 9.09 С 2 20 км ясно +11.5 +7.3 75 +10 +11 1026.3 1011.6 +10.3
06 9.09 СВ 3 20 км ясно +18.1 +7.7 51 +18 +24 1026.3 1011.9
09 9.09 С 4 20 км 6/6 1000 м
[Cu hum]
+21.2 +6.2 38 +22 +25 комфорт 1025.6 1011.4
12 9.09 СВ 4 20 км 6/4 1000 м
[Cu hum Ci sp]
+22.3 +7.3 38 +23 +25 комфорт 1024.3 1010.1
15 9.09 С 1 20 км 4/3 1000 м
[Cu med, cong Ac cuf]
+19.5 +9.2 51 +22 +22 комфорт 1024.7 1010.4 +23.1
18 9.09 С 1 10 км ясно +15.0 +9.4 69 +16 +16 1025.4 1010.9
21 9.09 С 1 10 км ясно +12.6 +9.7 82 +13 +13 1025.9 1011.2
00 10.09 СЗ 1 10 км ясно +8.8 +7.3 90 +8 +8 1026.3 1011.4
03 10.09 З 1 20 км 10/0
[Cs]
+9.4 +8.1 92 +9 +9 1026.9 1012.1 +8.2
06 10.09 СВ 2 20 км 8/0
[Cs]
+19.5 +8.2 48 +21 +27 комфорт 1026.7 1012.4
09 10.09 СЗ 1 20 км 8/8 600 м
[Cb cap]
+22.3 +8.3 41 +24 +26 комфорт 1025.9 1011.7
12 10.09 СВ 3 20 км 9/9 600 м
[Cb cap]
+21.7 +7.2 39 +23 +23 комфорт 1025.5 1011.3
15 10.09 С 2 20 км 8/8 600 м
[Cb cap]
+19.2 +8.9 51 +21 +21 комфорт 1026.4 1012.1 +23.0
18 10.09 СВ 2 10 км ясно +13.3 +9.2 76 +13 +13 1027.9 1013.2
21 10.09 СВ 1 10 км ясно +9.4 +5.8 78 +9 +9 1028.9 1014.1
00 11.09 В 1 10 км ясно +7.0 +4.7 85 +6 +6 1030.2 1015.2
03 11.09 СВ 1 20 км ясно +8.3 +6.1 86 +8 +8 1031.9 1016.9 +4.7
06 11.09 В 2 20 км ясно +18.2 +8.1 52 +19 +26 1032.5 1018.0
09 11.09 В 3 20 км 3/3
[Cu hum]
+22.7 +7.0 36 +23 +29 комфорт 1031.6 1017.4
12 11.09 СВ 2 20 км 6/6 1000 м
[Cu hum]
+23.3 +6.3 33 +24 +25 комфорт 1031.2 1017.0
15 11.09 СВ 2 20 км 3/0
[Ac cuf]
+19.2 +7.2 46 +20 +20 1031.6 1017.2 +24.1
18 11.09 штиль 0 10 км ясно +10.6 +6.8 77 +10 +10 1032.6 1017.7
21 11.09 штиль 0 10 км ясно +7.8 +5.7 87 +7 +7 1032.7 1017.7
00 12.09 штиль 0 10 км ясно +5.8 +3.9 88 +5 +5 1032.9 1017.8
03 12.09 штиль 0 20 км 3/3 1000 м
[Sc]
+8.5 +5.3 80 +8 +8 1033.2 1018.2 +5.4
06 12.09 С 1 20 км ясно +20.5 +7.8 44 +23 +31 комфорт 1032.4 1018.0
09 12.09 С 3 20 км 6/6 1000 м
[Cu med, cong]
+23.6 +5.8 32 +24 +27 комфорт 1030.6 1016.4
12 12.09 С 3 20 км 1/1 1000 м
[Cu hum]
+23.8 +2.7 25 +23 +26 комфорт 1028.8 1014.6
15 12.09 СВ 1 20 км ясно +17.3 +6.1 48 +18 +18 1028.5 1014.1 +24.4
18 12.09 штиль 0 10 км ясно +9.0 +5.1 77 +8 +8 1029.0 1014.1
21 12.09 штиль 0 10 км ясно +5.7 +3.2 84 +5 +5 1028.4 1013.4
00 13.09 штиль 0 10 км ясно +3.9 +2.0 87 +3 +3 1028.2 1013.0
03 13.09 штиль 0 20 км ясно +6.0 +3.8 86 +5 +6 1028.1 1013.0 +3.0
06 13.09 Ю 1 20 км ясно +20.4 +5.9 39 +22 +30 комфорт 1027.0 1012.7
09 13.09 СЗ 1
{11}
20 км ясно +24.5 +5.0 28 +24 +35 комфорт 1025.1 1011.0
12 13.09 С 1 20 км 3/3 1000 м
[Cu hum]
+25.0 +3.4 25 +24 +27 комфорт 1023.4 1009.3
15 13.09 штиль 0 20 км ясно +17.7 +7.8 52 +18 +18 1023.0 1008.6 +25.6
18 13.09 штиль 0 10 км ясно +10.3 +6.5 77 +10 +10 1023.5 1008.7
21 13.09 штиль 0 10 км ясно +6.9 +4.5 85 +6 +6 1023.0 1008.1
00 14.09 СВ 1 10 км ясно +5.1 +3.1 87 +4 +4 1022.8 1007.8
03 14.09 В 1 20 км ясно +7.4 +4.0 79 +7 +7 1022.6 1007.7 +4.3
06 14.09 Ю 1 20 км ясно +19.6 +6.7 43 +21 +29 комфорт 1021.6 1007.3
09 14.09 ЮЗ 2 20 км 3/3 600 м
[Cb cap]
+26.0 +5.5 27 +25 +32 комфорт 1019.8 1005.9
12 14.09 З 1 20 км 6/6 600 м
[Cb cap]
+24.9 +3.4 25 +24 +26 комфорт 1018.8 1004.8
15 14.09 штиль 0 20 км ясно +17.9 +7.8 52 +18 +18 1018.7 1004.4 +27.1
18 14.09 штиль 0 10 км ясно +10.9 +5.5 69 +10 +10 1019.0 1004.3
21 14.09 С 1 10 км ясно +7.4 +4.1 80 +7 +7 1018.8 1004.0
00 15.09 СВ 1 10 км ясно +8.9 +2.7 65 +9 +9 1018.3 1003.5
03 15.09 СВ 1 20 км 8/8 1000 м
[Sc]
+10.3 +3.5 63 +10 +10 1017.7 1003.0 +6.8
06 15.09 ЮЗ 2 20 км 8/0
[Ac trans]
+22.1 +3.7 30 +22 +25 комфорт 1017.0 1002.9
09 15.09 ЮЗ 2 20 км 9/0
[Ac cast]
+23.4 +4.1 28 +23 +26 комфорт 1016.1 1002.1
12 15.09 ЮЗ 5 20 км 9/3 600 м
[Cb cap Ac trans Ci sp]
+25.2 +0.8 20 +24 +24 комфорт 1014.7 1000.8
15 15.09 Ю 2 20 км 10/8 600 м
[Cb cap As op]
+20.7 +2.6 30 +22 +22 комфорт 1013.0 998.9 +25.3
18 15.09 СЗ 3 10 км 10/8 600 м
[Cb cap As op]
+18.4 +6.6 46 +19 +19 1012.8 998.6

 

Местоположение метеостанции Соль-Илецк (Оренбургская область, Россия): широта 51.15 долгота 55.02 высота над уровнем моря 121 м.

В архиве по умолчанию представлена погода в Соль-Илецк за последнюю неделю. Архивные данные за месяц целиком и за предыдущие месяцы, начиная с января 2011 года, Вы можете получить, выбрав интересующий диапазон дат из раскрывающегося списка и нажав кнопку "Ввод!".


*Определитесь, кто Вы:
робот инопланетянин человек

Внимание! Время в таблицах - всемирное. Для получения местного времени необходимо прибавить поправку, которая равна 5 ч.

Смотрите также архив погоды в соседних городах и на ближайших метеорологических станциях:

Погода в Акбулаке (Оренбургская область, Россия) (45 км)
Погода в Новокуйбышевске (Самарская область, Россия) (45 км)
Погода в Оренбурге (Оренбургская область, Россия) (59 км)
Погода в Чингирлау (Западно-Казахстанская область, Казахстан) (65 км)
Погода в Татарской Каргале (Оренбургская область, Россия) (84 км)
Погода в Беляевке (Оренбургская область, Россия) (102 км)
Погода в Мартуке (Актюбинская область, Казахстан) (115 км)
Погода в Илеке (Оренбургская область, Россия) (122 км)
Погода в Новоалексеевке (Костанайская область, Казахстан) (123 км)
Погода в Аксае (Западно-Казахстанская область, Казахстан) (141 км)

Пояснения к столбцам:

Ветер - указаны скорость ветра в м/с - средняя за 10 мин, порывы в срок и между сроками (в фигурных скобках) и направление, откуда дует ветер: С - северный, СВ - северо-восточный, В - восточный, ЮВ - юго-восточный, Ю - южный, ЮЗ - юго-западный, З - западный, СЗ - северо-западный.
Видимость - горизонтальная дальность видимости в метрах или километрах. При видимости от 1 до 10 км при отсутствии осадков обычно наблюдается дымка, при ухудшении видимости до 1 км и менее - туман. В сухую погоду видимость может ухудшаться дымом, пылью или мглою.
Явления - указаны атмосферные явления, наблюдавшиеся в срок или в последний час перед сроком; фигурными скобками обозначены явления, наблюдавшиеся между сроками (за 1-3 часа до срока); квадратными скобками обозначены град или гололедные отложения с указанием их диаметра в мм.
Облачность - указаны через наклонную черту общая и нижняя облачность в баллах и высота нижней границы облаков в метрах; квадратными скобками обозначены формы облаков: Ci - перистые, Cs - перисто-слоистые, Cc - перисто-кучевые, Ac - высококучевые, As - высокослоистые, Sc - слоисто-кучевые, Ns - слоисто-дождевые, Cu - кучевые, Cb - кучево-дождевые. Подробнее классификацию облаков см. в Атласе облаков (PDF).
T - Температура воздуха - температура, измеренная на высоте 2 м над землей.
Td - Температура точки росы - температура, при понижении до которой содержащийся в воздухе водяной пар достигнет насыщения.
f - Относительная влажность воздуха - влажноcть воздуха, измеренная на высоте 2 м над землей.
Te - Эффективная температура - температура, которую ощущает одетый по сезону человек в тени. Характеристика душности погоды. При расчете учитывается влияние влажности воздуха и скорости ветра на теплоощущения человека.
Tes - Эффективная температура на солнце - температура, которую ощущает человек, с поправкой на солнечный нагрев. Характеристика знойности погоды. Зависит от высоты солнца над горизонтом, облачности и скорости ветра. Ночью, в пасмурную погоду, а также при ветре 12 м/с и более поправка равна нулю.
P - Атмосферное давление - приведенное к уровню моря атмосферное давление.
Po - Атмосферное давление - измеренное на уровне метеостанции атмосферное давление.
Tmin - Минимальная температура - минимум температуры воздуха на высоте 2 м над землей.
Tmax - Максимальная температура - максимум температуры воздуха на высоте 2 м над землей.
R - Количество осадков - Количество выпавших осадков за период времени, мм. При наведении курсора мыши на число - период времени, за который выпало указанное количество осадков.
R24 - Количество осадков - Количество выпавших осадков за 24 часа, мм.
S - Снежный покров - Высота снежного покрова, см. При наведении курсора мыши на число - состояние снежного покрова и степень покрытия местности в баллах.